Location: Newark
(46.9000°N, 28.3500°E)
Time: 01:22:29
(UTC+00:00)

Explorer 7 - Pass Details

Date: 30 August 2019
Orbit: 485 x 680 km, 50.3° (Epoch: 19 September)

Event Time Altitude Azimuth Distance (km) Brightness Sun altitude
Rises 10:10:21 0° 292° (WNW) 2,966 10.4 52.1°
Reaches altitude 10° 10:12:46 10° 289° (WNW) 2,026 9.7 52.1°
Maximum altitude 10:17:20 57° 211° (SSW) 718 9.3 52.1°
Drops below altitude 10° 10:21:37 10° 133° (SE) 1,898 10.0 52.0°
Sets 10:23:49 0° 129° (SE) 2,760 10.7 52.0°
